NIMBUS 2 DEB, 37890

Orbit data source: Space-Track

NIMBUS 2 DEB, 37890 is space debris in SSO originally from a launch on Sun, 15 May 1966 UTC launched from the Air Force Western Test Range (AFWTR). Debris objects in space refer to the collection of defunct objects orbiting the Earth. Examples of debris include non-operational satellites, rocket bodies, and fragments generated from explosions, collisions, or faulty payload assembly.

Loading next visibility...
Identifier
37890, 1966-040AV
Orbit
SSO
Country
Flag of USUS
Related business
Manufacturer
Unknown
Mission
Spacecraft
Bus & Motor
Unknown
Mass
Unknown
Launch date (UTC)
1966-05-15 (60 years ago)
Launch vehicle
Unknown
Launch site
Air Force Western Test Range (AFWTR)
Object type
Payload
Rocket body
Debris
Shape & HBR
Unknown shape, 0.1 m
Radar Cross Section
Small (<0.1 m²)

Expand to show TLE details & history
Last TLE update: 17 hours ago

TLE from 17 hours ago
0 NIMBUS 2 DEB
1 37890U 66040AV  25340.80224487  .00003407  00000-0  54777-2 0  9998
2 37890 100.5111 290.6787 0051122 292.1341  67.4369 13.48950854695552
Epoch: 2025-12-06T19:15Z
TLE epoch observation values (Epoch: 2025-12-06T19:15:13.956Z)
Latitude
0.00004°
Longitude
-73.95421°
Altitude
1,064.418 km
Speed
7.327 km/s
True Right ascension
19h 22m 42s
True Declination
0° 00' 00"
Sunlit
Object was in daylight at epoch
Visualization orbit readout
Latitude
Unknown
Longitude
Unknown
Altitude
Unknown
Speed
Unknown
Apparent Right ascension
Unknown
Apparent Declination
Unknown
Sunlit
N/A
Visualization observer readout
Local Sidereal Time
10:01:11
Azimuth
Unknown
Elevation
Unknown
Doppler factor
Unknown
Orbital elements
Apogee altitude
1,111.561 km
Perigee altitude
1,035.373 km
Semi-major axis
7,451.604 km
Eccentricity
0.00511
Inclination
100.5111°
RAAN
290.6787°
Arg. of periapsis
292.1341°
True anomaly
67.9792°
Mean anomaly
67.4369°
Eccentric anomaly
67.70792°
Mean motion
3.37418 °/min
Orbital period
106.69 mins
BSTAR
0.0054777
Loading maneuver chart data...
Computing Atmospheric mass density...
Loading historical data...
Loading historical data...
Loading historical data...
Loading historical data...
Loading historical data...
Loading historical data...
Loading historical data...

Documentation

Showing up to 5 results
|